Sheboygan, WI

11:32 AM CDT on August 20, 2017 (GMT -0500)
Sheboygan County Memorial

Weather History for KSBM - October, 2011

Change the Weather History Date:

Tuesday, October 18, 2011

  Actual Average Record
Temperature  
Mean Temperature 43 °F -  
Max Temperature 51 °F 56 °F 75 °F (1956)
Min Temperature 36 °F 39 °F 21 °F (1948)
Degree Days  
Heating Degree Days 22    
Moisture  
Dew Point 35 °F    
Average Humidity 70    
Maximum Humidity 82    
Minimum Humidity 58    
Precipitation  
Precipitation 0.00 in - - ()
Sea Level Pressure  
Sea Level Pressure 29.85 in    
Wind  
Wind Speed 6 mph (North)    
Max Wind Speed 12 mph    
Max Gust Speed 20 mph    
Visibility 10 miles    
Events      
Averages and records for this station are not official NWS values.
T = Trace of Precipitation, MM = Missing Value Source: NWS Daily Summary

Daily Weather History Graph

Daily Weather History Graph

Search for Another Location

Airport or City:

Trip Planner

Search our weather history database for the weather conditions in past years. The results will help you decide how hot, cold, wet, or windy it might be!

Date:

Astronomy

Oct. 18, 2011 Rise Set
Actual Time 7:09 AM CDT 6:03 PM CDT
Civil Twilight 6:40 AM CDT 6:32 PM CDT
Nautical Twilight 6:06 AM CDT 7:05 PM CDT
Astronomical Twilight 5:33 AM CDT 7:38 PM CDT
Moon 10:37 PM CDT (10/18) 1:06 PM CDT (10/18)
Length of Visible Light 11h 52m
Length of Day
10h 54m
Waning Gibbous, 64% of the Moon is Illuminated
Oct 18
Waning Gibbous
Oct 19
Last Quarter
Oct 26
New
Nov 2
First Quarter
Nov 10
Full

Hourly Weather History & Observations

Time (CDT) Temp. Windchill Dew Point Humidity Pressure Visibility Wind Dir Wind Speed Gust Speed Precip Events Conditions
12:53 AM 44.1 °F 41.5 °F 30.0 °F 58% 29.76 in 10.0 mi WNW 4.6 mph - N/A   Clear
1:53 AM 42.1 °F 37.7 °F 30.0 °F 62% 29.76 in 10.0 mi West 6.9 mph - N/A   Clear
2:53 AM 39.9 °F 36.7 °F 30.9 °F 70% 29.76 in 10.0 mi WNW 4.6 mph - N/A   Clear
3:53 AM 37.0 °F 33.3 °F 30.0 °F 76% 29.77 in 10.0 mi WNW 4.6 mph - N/A   Clear
4:53 AM 39.0 °F 35.7 °F 30.9 °F 73% 29.79 in 10.0 mi WNW 4.6 mph - N/A   Clear
5:53 AM 37.0 °F - 30.9 °F 79% 29.81 in 10.0 mi Calm Calm - N/A   Clear
6:53 AM 36.0 °F 32.1 °F 30.9 °F 82% 29.81 in 10.0 mi NW 4.6 mph - N/A   Clear
7:53 AM 39.0 °F 34.8 °F 34.0 °F 82% 29.83 in 10.0 mi NNW 5.8 mph - N/A   Overcast
8:53 AM 44.1 °F 39.5 °F 36.0 °F 73% 29.85 in 10.0 mi North 8.1 mph - N/A   Overcast
9:53 AM 46.9 °F - 36.0 °F 66% 29.86 in 10.0 mi NNW 11.5 mph - N/A   Scattered Clouds
10:53 AM 48.0 °F - 36.0 °F 63% 29.87 in 10.0 mi NW 6.9 mph - N/A   Scattered Clouds
11:10 AM 48.2 °F - 35.6 °F 62% 29.86 in 10.0 mi North 6.9 mph - N/A   Mostly Cloudy
11:21 AM 48.2 °F - 35.6 °F 62% 29.87 in 10.0 mi Variable 5.8 mph - N/A   Overcast
11:53 AM 48.9 °F - 36.0 °F 61% 29.88 in 10.0 mi North 6.9 mph - N/A   Overcast
1:53 PM 48.9 °F - 36.0 °F 61% 29.86 in 10.0 mi North 10.4 mph 19.6 mph N/A   Overcast
2:53 PM 50.0 °F - 36.0 °F 59% 29.86 in 10.0 mi NNE 6.9 mph 16.1 mph N/A   Overcast
3:53 PM 48.9 °F - 37.9 °F 66% 29.88 in 10.0 mi NE 6.9 mph - N/A   Scattered Clouds
4:53 PM 48.0 °F - 37.9 °F 68% 29.89 in 10.0 mi East 10.4 mph - N/A   Mostly Cloudy
5:53 PM 46.0 °F 42.5 °F 37.9 °F 73% 29.89 in 10.0 mi NE 6.9 mph - N/A   Overcast
6:53 PM 46.0 °F 44.8 °F 37.9 °F 73% 29.90 in 10.0 mi North 3.5 mph - N/A   Overcast
8:53 PM 46.0 °F 42.5 °F 37.9 °F 73% 29.92 in 10.0 mi NNE 6.9 mph - N/A   Overcast
9:53 PM 45.0 °F 40.1 °F 37.9 °F 76% 29.92 in 10.0 mi NNE 9.2 mph - N/A   Overcast
10:53 PM 45.0 °F 40.6 °F 37.9 °F 76% 29.91 in 10.0 mi North 8.1 mph - N/A   Overcast
11:53 PM 44.1 °F 40.1 °F 39.0 °F 82% 29.92 in 10.0 mi North 6.9 mph - 0.00 in   Overcast